Location: Saluda
(35.2377°N, 82.3468°W)
Time: 19:00:08
(UTC+00:00)

Vanguard 3 - Pass Details

Date: 07 October 2022
Orbit: 509 x 3255 km, 33.3° (Epoch: 01 December)

Event Time Altitude Azimuth Distance (km) Brightness Sun altitude
Rises 12:55:02 0° 248° (WSW) 2,611 9.3 16.3°
Reaches altitude 10° 12:57:09 10° 243° (WSW) 1,714 8.5 16.7°
Maximum altitude 13:00:43 51° 166° (SSE) 694 7.4 17.4°
Drops below altitude 10° 13:05:09 10° 90° (E) 2,126 10.9 18.2°
Sets 13:08:03 0° 85° (E) 3,337 11.4 18.7°
